SIRIUSSAT-1 (43595 NORAD) Tracking and Keplerian Element Data

This shows tracking and keplerian element data for the satellite.

Feedback or suggestion? Click here.




ElementValue
Catalog43595
NameSIRIUSSAT-1
Epoch Orbit1367
Epoch Day315.59369028
Epoch Year2018
RAAN3.2875
Inclination51.6399
Eccentricity0.0004261
Argument of Perigee11.2724
Mean Anonmoly348.8362
Mean Motion15.56072803
Decay Rate0.00010748
L11 43595U 98067PG 18315.59369028 .00010748 00000-0 15784-3 0 9994
L22 43595 51.6399 3.2875 0004261 11.2724 348.8362 15.56072803 13674

Live tracking and technical data element details for SIRIUSSAT-1 (NORAD 43595). SIRIUSSAT-1 can be tracked NOW for your location showing map with azimuth and elevation plus other details from your city location.

Track the satellite on the map from your city or location and see movement details for azimuth, elevation, latitude, longitude, range, height, and movement on the map or in text.







IsCatalogInMostPopularTable: catalog: 43595, numindb: 32
Update: records affected: 1



GetName: 43595 SIRIUSSAT-1

Hit Count: updated at: Tue, 13 Nov 2018 06:31:59 GMT